TimeCDT,TemperatureF,Dew PointF,Humidity,Sea Level PressureIn,VisibilityMPH,Wind Direction,Wind SpeedMPH,Gust SpeedMPH,PrecipitationIn,Events,Conditions,WindDirDegrees,DateUTC
12:53 AM,51.1,42.1,71,30.16,6.0,Calm,Calm,-,N/A,,Haze,0,2014-03-10 05:53:00
1:53 AM,51.1,43.0,74,30.14,6.0,Calm,Calm,-,N/A,,Haze,0,2014-03-10 06:53:00
2:53 AM,51.1,44.1,77,30.12,6.0,Calm,Calm,-,N/A,,Haze,0,2014-03-10 07:53:00
3:53 AM,50.0,43.0,77,30.11,6.0,Calm,Calm,-,N/A,,Haze,0,2014-03-10 08:53:00
4:53 AM,46.9,41.0,80,30.11,6.0,Calm,Calm,-,N/A,,Haze,0,2014-03-10 09:53:00
5:04 AM,48.2,41.0,76,30.11,5.0,Calm,Calm,-,N/A,,Haze,0,2014-03-10 10:04:00
5:28 AM,46.4,41.0,81,30.11,6.0,Calm,Calm,-,N/A,,Haze,0,2014-03-10 10:28:00
5:53 AM,46.0,39.9,79,30.11,5.0,Calm,Calm,-,N/A,,Haze,0,2014-03-10 10:53:00
6:53 AM,44.1,39.0,82,30.13,4.0,Calm,Calm,-,N/A,,Haze,0,2014-03-10 11:53:00
7:53 AM,45.0,39.9,82,30.13,4.0,WSW,3.5,-,N/A,,Haze,250,2014-03-10 12:53:00
8:53 AM,50.0,42.1,74,30.14,4.0,West,3.5,-,N/A,,Haze,260,2014-03-10 13:53:00
9:53 AM,54.0,43.0,66,30.12,5.0,West,9.2,-,N/A,,Haze,270,2014-03-10 14:53:00
10:53 AM,57.9,44.1,60,30.11,6.0,West,11.5,-,N/A,,Haze,270,2014-03-10 15:53:00
11:22 AM,59.0,44.6,59,30.11,7.0,WNW,10.4,-,N/A,,Scattered Clouds,290,2014-03-10 16:22:00
11:53 AM,60.1,46.0,60,30.10,8.0,WNW,10.4,20.7,N/A,,Scattered Clouds,290,2014-03-10 16:53:00
12:53 PM,62.1,46.0,56,30.06,8.0,WNW,9.2,-,N/A,,Clear,300,2014-03-10 17:53:00
1:53 PM,66.0,44.1,45,30.01,9.0,SSW,8.1,16.1,N/A,,Clear,210,2014-03-10 18:53:00
2:53 PM,68.0,42.1,39,29.98,10.0,WSW,8.1,-,N/A,,Clear,240,2014-03-10 19:53:00
3:53 PM,70.0,43.0,38,29.95,10.0,West,8.1,-,N/A,,Clear,260,2014-03-10 20:53:00
4:53 PM,70.0,39.9,33,29.93,10.0,WSW,11.5,-,N/A,,Clear,250,2014-03-10 21:53:00
5:53 PM,69.1,41.0,36,29.93,10.0,SW,11.5,-,N/A,,Clear,230,2014-03-10 22:53:00
6:53 PM,64.0,41.0,43,29.93,10.0,SW,6.9,-,N/A,,Clear,230,2014-03-10 23:53:00
7:53 PM,61.0,42.1,50,29.93,10.0,SSW,4.6,-,N/A,,Clear,210,2014-03-11 00:53:00
8:53 PM,57.9,43.0,58,29.92,10.0,South,5.8,-,N/A,,Clear,190,2014-03-11 01:53:00
9:53 PM,55.0,43.0,64,29.94,10.0,SSW,3.5,-,N/A,,Clear,210,2014-03-11 02:53:00
10:53 PM,54.0,43.0,66,29.93,10.0,SW,3.5,-,N/A,,Clear,220,2014-03-11 03:53:00
11:53 PM,53.1,44.1,71,29.92,10.0,West,3.5,-,N/A,,Clear,260,2014-03-11 04:53:00